Location: Bílinka
(49.3579°N, 14.3767°E)
Time: 10:23:24
(UTC+00:00)

ATLAS 2AS CENTAUR R/B - Visible Passes

Search period start: 28 September 2023 00:00
Search period end: 08 October 2023 00:00
Orbit: 998 x 1213 km, 63.7° (Epoch: 27 September)

Date Brightness Start Highest point End Pass type
(mag) Time Alt. Az. Time Alt. Az. Time Alt. Az.
28 Sep 4.6 00:19:33 20° ESE 00:19:33 20° ESE 00:23:58 10° ENE visible
28 Sep 2.9 02:07:00 53° SSW 02:08:58 77° SE 02:16:12 10° NE visible
28 Sep 3.5 03:54:27 13° W 04:00:30 40° NNW 04:07:10 10° NE visible
28 Sep 5.2 23:36:21 11° E 23:36:21 11° E 23:37:12 10° E visible
29 Sep 3.2 01:23:48 54° SE 01:24:07 55° ESE 01:31:10 10° NE visible
29 Sep 3.2 03:11:14 27° W 03:15:14 51° NW 03:22:13 10° NE visible
30 Sep 3.9 00:40:33 36° E 00:40:33 36° E 00:46:00 10° NE visible
30 Sep 2.9 02:28:00 48° WSW 02:30:05 67° NW 02:37:16 10° NE visible
30 Sep 3.9 04:15:56 10° WNW 04:22:19 30° NNW 04:28:25 10° NE visible
30 Sep 4.6 23:57:16 21° E 23:57:16 21° E 00:00:35 10° ENE visible
01 Oct 2.7 01:44:43 83° SW 01:45:04 89° NW 01:52:20 10° NE visible
01 Oct 3.7 03:32:09 18° W 03:36:52 36° NNW 03:43:19 10° NE visible
01 Oct 5.2 23:13:57 12° ENE 23:13:57 12° ENE 23:14:36 10° ENE visible
02 Oct 3.2 01:01:23 58° ENE 01:01:23 58° ENE 01:07:20 10° NE visible
02 Oct 3.4 02:48:49 32° WNW 02:51:31 44° NNW 02:58:20 10° NE visible
03 Oct 4.1 00:18:02 34° ENE 00:18:02 34° ENE 00:22:16 10° NE visible
03 Oct 3.0 02:05:28 54° WNW 02:06:19 57° NW 02:13:23 10° NE visible
03 Oct 4.1 03:52:54 11° WNW 03:58:45 28° NNW 04:04:41 10° NE visible
03 Oct 4.7 23:34:39 20° ENE 23:34:39 20° ENE 23:37:00 10° NE visible
04 Oct 3.0 01:22:05 68° N 01:22:05 68° N 01:28:27 10° NE visible
04 Oct 3.9 03:09:31 21° WNW 03:13:15 32° NNW 03:19:31 10° NE visible
04 Oct 5.2 22:51:16 10° ENE 22:51:16 10° ENE 22:51:24 10° ENE visible
05 Oct 3.6 00:38:41 46° NE 00:38:41 46° NE 00:43:30 10° NE visible
05 Oct 3.6 02:26:07 34° WNW 02:27:51 39° NNW 02:34:28 10° NE visible
05 Oct 4.2 04:14:54 10° WNW 04:20:46 25° N 04:26:25 10° NE visible
05 Oct 4.4 23:55:15 28° ENE 23:55:15 28° ENE 23:58:29 10° NE visible
06 Oct 3.3 01:42:42 49° NNW 01:42:42 49° NNW 01:49:29 10° NE visible
06 Oct 4.2 03:30:07 13° WNW 03:35:12 27° N 03:41:00 10° NE visible
06 Oct 4.9 23:11:49 17° ENE 23:11:49 17° ENE 23:13:20 10° NE visible
07 Oct 3.5 00:59:15 49° NNE 00:59:15 49° NNE 01:04:33 10° NE visible
07 Oct 4.0 02:46:41 22° NW 02:49:40 30° NNW 02:55:44 10° NE visible
07 Oct 4.3 04:36:54 10° NW 04:42:49 27° N 04:48:31 10° ENE visible
